Wind_Speed
7 7 7 6 5 4 4 4 2 2 1 1 4 5 4 5 8 9 10 11 10 7 7 10 10 5 3 5 8 11 13 8 6 3 6 11 18 17 15 16 14 12 11 10 10 10 9 10 10 9 9 9 7 7 7 7 7 7 8 8 8 9 9 9 10 12 12 10 10 11 12 13 14 13 14 14 13 14 14 14 15 16 17 16 17 18 17 17 17 17 16 16 16 15 16 15 15
8 7 7 6 6 4 2 1 1 2 2 2 5 6 6 6 8 10 11 10 9 9 11 10 8 5 4 6 9 9 13 12 11 10 11 19 21 17 17 16 14 13 12 11 10 10 9 10 10 9 8 8 8 7 7 7 8 8 9 8 9 9 9 10 11 14 12 7 8 11 13 14 14 13 13 12 13 13 14 14 15 16 17 17 16 16 17 17 17 17 17 16 16 15 15 15 15
9 7 7 5 6 5 2 2 1 2 3 3 5 6 6 7 10 11 10 10 12 14 14 10 8 5 5 8 7 8 9 10 14 14 13 20 17 16 19 16 14 14 12 11 9 10 10 10 10 9 7 7 7 7 7 8 8 9 9 9 9 9 9 11 14 16 11 6 8 10 13 14 14 14 13 12 12 12 13 15 15 16 17 16 15 16 17 17 16 17 16 16 16 16 15 15 15
8 6 6 5 4 4 4 2 1 1 3 5 6 7 7 8 11 12 10 12 14 15 12 9 7 3 3 9 8 9 11 11 15 14 12 16 16 18 19 16 15 14 13 11 10 10 10 10 10 8 7 7 7 7 8 8 9 9 10 10 10 10 11 13 17 16 9 7 10 11 12 12 12 13 13 12 13 12 12 15 15 15 16 15 15 15 16 16 16 16 16 16 16 15 15 14 15
7 5 5 5 4 1 3 2 1 1 3 4 6 7 8 10 12 12 12 13 14 14 11 8 7 5 6 8 5 7 10 11 14 15 13 16 19 20 18 16 15 13 13 13 14 12 10 11 9 9 8 7 7 8 9 9 9 9 10 10 11 11 12 15 18 16 9 7 11 11 11 11 12 13 13 12 13 13 14 15 15 15 16 15 15 15 16 16 16 15 16 16 16 15 15 15 15
6 5 5 6 3 1 2 1 1 3 4 4 5 9 10 11 12 13 13 13 13 12 10 6 8 9 8 9 9 9 8 11 13 14 16 19 20 19 18 16 14 13 13 14 15 13 12 11 10 9 8 8 8 8 9 9 8 8 10 11 11 12 13 17 19 14 10 10 11 10 10 12 13 13 12 11 14 14 15 15 15 15 16 15 15 16 16 15 15 15 15 16 16 15 16 16 15
4 3 4 4 2 2 3 1 3 4 4 4 5 10 11 12 13 14 14 13 12 10 7 7 10 10 8 7 9 10 9 12 13 15 17 20 20 19 17 14 14 14 13 12 13 13 13 11 10 9 8 8 8 9 9 9 9 9 10 11 12 12 13 17 17 13 11 11 11 10 11 13 14 13 12 12 14 14 14 15 15 15 16 16 16 16 15 15 15 15 15 16 16 15 16 15 15
4 3 2 3 3 3 3 1 4 4 4 3 4 9 12 14 13 14 14 12 11 10 8 9 10 9 8 7 7 9 11 13 14 18 20 20 20 18 16 14 14 13 12 12 13 13 12 11 10 9 8 8 8 9 9 9 11 11 11 12 12 12 14 17 16 13 12 12 11 12 13 13 14 14 13 13 14 14 14 15 16 16 16 16 16 16 15 15 15 15 15 15 15 15 16 15 14
5 3 3 3 4 1 2 1 6 5 5 4 5 9 12 14 14 14 13 11 11 11 10 10 8 8 10 10 10 10 12 15 19 21 20 19 19 17 15 14 14 13 13 12 13 13 11 11 10 9 9 8 8 9 9 10 11 11 12 12 12 12 14 18 16 12 12 13 13 13 13 13 14 15 14 14 14 14 14 15 16 16 16 16 16 15 15 15 14 14 14 14 14 15 15 15 14
4 2 3 3 3 2 1 2 5 3 5 6 7 11 12 12 13 13 12 11 12 12 11 8 7 10 12 12 10 9 13 17 21 20 19 18 17 16 15 14 14 13 12 12 13 13 12 11 10 10 9 9 9 9 10 10 11 12 12 13 13 13 15 19 16 12 13 14 13 13 14 14 15 16 14 15 16 16 16 16 16 16 16 16 16 16 15 14 14 14 14 13 14 15 15 15 14
3 2 2 3 2 1 0 4 4 3 5 7 9 11 10 11 12 11 11 11 12 12 12 8 10 13 12 11 8 11 17 19 20 20 19 17 16 15 15 14 13 12 12 13 12 12 12 11 10 9 9 10 10 9 10 11 11 12 13 13 14 14 17 19 15 13 15 16 16 16 16 16 17 16 15 17 17 17 17 16 16 16 16 16 16 16 15 15 14 14 13 13 13 14 15 15 14
3 2 1 3 3 1 2 4 6 6 7 8 10 10 9 11 11 11 12 11 12 12 11 8 10 11 11 10 7 13 19 18 19 19 18 17 16 15 15 13 12 12 12 12 11 12 12 11 11 10 11 12 10 10 11 12 12 13 14 14 14 15 18 19 15 14 16 18 18 18 18 19 18 16 16 18 18 18 17 16 17 17 17 17 17 16 15 15 15 14 14 14 15 15 15 14 13
3 3 3 3 3 3 2 3 7 8 7 7 8 9 9 11 11 12 12 11 12 11 10 9 9 9 10 10 9 13 17 18 18 19 18 16 16 16 14 13 12 12 12 12 11 11 11 11 12 11 12 12 11 11 12 12 13 14 15 15 15 17 19 19 16 16 17 18 19 19 20 20 19 17 18 19 18 18 17 17 18 17 17 17 17 16 16 16 15 15 15 16 15 15 15 14 13
3 3 4 3 2 2 3 2 7 8 7 8 7 9 9 8 10 11 11 12 11 9 9 9 9 10 11 10 9 10 14 19 19 18 17 16 16 16 15 13 12 12 12 11 10 10 10 11 12 12 11 11 11 11 13 14 14 15 15 15 16 18 19 18 17 18 19 19 20 20 21 21 20 18 18 19 19 18 17 17 18 17 18 17 17 17 18 17 16 16 15 15 15 15 15 13 13
3 3 4 4 1 1 1 1 8 8 7 10 8 8 9 7 11 11 11 12 9 7 8 9 7 7 11 12 10 12 17 21 20 18 17 17 17 16 14 13 12 12 12 11 10 9 9 10 12 12 11 11 11 11 13 14 15 15 15 16 18 19 20 18 17 19 21 21 21 21 21 22 21 19 17 18 19 18 18 18 17 17 18 18 18 17 17 17 16 16 15 15 15 14 14 13 12
3 3 3 4 2 1 1 1 7 8 8 10 8 9 10 9 10 9 8 9 9 8 7 7 5 4 11 14 14 19 22 21 20 19 18 17 17 16 14 12 12 12 11 11 9 8 8 9 10 11 11 11 11 11 13 14 14 15 15 16 18 19 20 18 17 18 21 22 22 22 22 23 23 20 17 17 18 18 18 18 17 17 17 18 18 17 16 16 15 16 16 15 15 14 13 13 12
3 4 4 3 2 2 2 0 3 7 11 10 10 11 12 11 9 7 7 9 11 10 6 6 5 5 12 16 21 25 23 21 20 19 19 17 16 14 13 12 11 11 11 10 9 8 8 9 10 10 11 11 11 12 13 13 14 15 15 16 17 19 19 19 18 19 20 21 21 20 20 21 21 19 18 16 16 17 17 17 16 16 17 17 17 17 17 16 15 15 15 15 15 14 13 12 12
3 3 3 3 3 4 5 2 2 8 13 12 10 12 12 12 10 8 9 10 11 11 8 8 8 10 17 22 25 25 22 21 21 20 19 16 15 13 12 11 11 11 11 10 9 8 8 8 9 9 10 10 11 11 12 12 14 14 15 15 16 17 18 19 19 17 18 19 19 18 18 19 18 18 19 18 16 15 15 15 15 15 16 16 17 17 15 13 13 14 14 14 14 13 12 9 8
4 4 3 2 5 6 4 2 4 7 13 13 10 11 12 12 12 10 10 12 12 11 10 11 13 15 20 24 25 23 22 21 20 19 18 16 15 13 12 11 10 10 11 11 10 8 8 8 8 9 9 10 10 11 11 12 12 13 14 14 15 17 17 18 18 15 15 17 16 16 17 18 18 18 18 18 17 16 15 16 16 16 15 15 15 14 13 12 12 12 12 13 12 10 8 6 5
3 3 3 3 6 5 4 3 5 8 13 13 10 11 11 11 11 9 11 13 12 11 12 13 16 18 20 22 23 23 21 20 20 19 17 16 14 13 11 11 11 10 10 11 10 8 8 9 8 8 9 9 9 10 10 11 11 12 13 13 14 15 16 17 17 15 15 15 16 16 17 18 19 19 18 18 17 17 16 16 16 16 15 14 13 12 11 10 10 11 11 9 8 7 6 6 6
2 2 4 5 5 4 4 5 7 10 14 12 11 12 12 11 9 8 12 12 10 10 12 14 17 20 21 21 22 23 21 20 19 18 17 15 13 13 11 11 11 10 9 10 10 9 9 9 8 8 8 8 9 9 9 10 10 11 12 13 13 14 15 16 16 16 15 15 15 15 16 16 17 17 16 15 14 14 15 15 14 13 12 11 10 9 8 7 7 7 7 6 5 6 6 6 6
4 3 4 5 6 3 4 6 10 12 12 12 12 11 11 11 8 9 11 8 7 9 11 15 19 20 20 21 21 21 21 19 18 17 16 15 13 12 12 10 11 10 9 9 10 9 9 8 8 8 8 8 8 8 9 9 9 11 12 12 13 14 14 15 15 15 14 13 13 13 15 15 14 14 14 13 13 12 12 12 12 10 9 8 8 7 7 6 6 5 5 5 5 6 7 6 6
5 3 3 6 6 0 6 9 12 12 12 13 11 11 11 11 10 9 7 3 8 10 11 16 19 21 21 21 20 19 19 18 18 17 16 15 14 13 12 11 10 10 9 10 10 9 8 8 8 8 9 9 9 9 9 9 9 10 11 12 12 13 14 14 15 14 13 12 11 12 13 13 13 14 13 13 12 12 11 11 11 10 9 8 7 7 6 5 5 5 5 5 4 5 6 6 6
5 4 4 7 6 4 9 11 13 12 11 11 9 11 11 11 11 8 5 7 11 11 12 17 21 23 22 19 18 17 17 17 17 17 15 14 13 13 12 10 10 10 10 10 10 9 9 9 8 8 9 9 9 9 9 9 9 10 10 11 12 12 12 14 14 14 14 13 11 11 12 12 13 13 13 13 12 12 11 11 10 9 9 8 7 7 6 6 5 5 5 5 5 5 5 6 6
4 5 5 7 7 7 10 12 13 11 9 9 10 11 10 10 10 7 8 10 12 12 13 17 20 21 19 17 17 16 15 16 17 16 15 13 13 13 11 10 10 10 11 10 9 9 9 9 9 9 9 9 9 8 9 9 9 9 9 10 11 10 12 13 14 14 14 13 12 11 11 12 12 13 13 13 12 12 11 10 9 9 8 8 7 7 7 6 6 5 5 5 5 4 5 6 5
2 5 6 8 9 8 11 13 12 10 7 8 11 11 10 11 9 8 9 12 13 14 15 17 19 19 17 16 16 15 14 16 17 16 14 13 13 13 11 11 10 10 11 10 10 10 9 9 9 9 9 8 8 8 9 9 9 9 9 9 9 10 11 12 12 13 13 13 12 11 11 12 12 12 12 12 11 11 10 9 9 8 8 7 7 7 7 6 6 6 5 4 4 4 5 4 4
5 3 8 9 9 8 10 12 10 8 7 8 11 11 11 10 5 6 9 12 14 14 16 17 17 17 16 15 15 14 14 15 16 15 14 14 12 12 12 11 10 10 10 10 10 9 9 9 9 9 8 8 8 8 8 8 8 9 9 9 9 9 10 11 11 12 13 13 12 12 12 11 11 11 11 10 9 9 8 8 8 8 8 7 7 7 6 6 6 5 5 5 4 4 4 3 4
2 5 10 11 11 8 8 10 7 6 4 5 10 11 10 7 3 7 12 12 13 15 17 17 16 16 15 15 14 13 14 14 15 14 15 14 13 12 12 11 11 11 10 10 10 10 10 10 9 9 8 8 8 8 9 8 8 8 8 8 8 9 9 10 11 12 13 13 12 11 11 10 11 10 9 9 8 7 7 7 7 7 7 7 6 6 6 6 5 5 5 5 4 4 4 3 3
3 5 7 11 12 8 6 8 5 4 3 4 8 9 8 6 6 12 13 12 12 14 17 17 16 14 14 14 12 11 13 14 14 14 14 13 12 12 12 11 11 11 11 10 10 10 10 10 10 9 8 8 8 9 8 8 8 8 8 8 8 9 9 9 10 11 12 12 11 11 10 10 10 9 8 8 7 7 7 7 7 7 6 6 5 5 6 6 5 5 5 4 4 3 4 3 4
4 5 5 9 9 6 5 5 5 4 4 4 3 5 7 7 10 13 12 13 13 13 16 16 15 14 13 13 12 11 13 14 14 14 14 12 12 12 12 12 11 10 11 11 11 11 10 9 9 9 9 9 8 8 8 8 8 8 8 8 8 8 8 9 10 10 10 10 10 10 9 9 8 8 7 6 6 7 7 7 7 6 6 5 5 5 5 5 5 5 5 4 4 3 4 4 4
5 5 6 6 5 7 6 6 8 6 3 2 0 2 6 8 11 13 12 13 14 13 15 15 14 14 12 12 12 12 12 14 15 14 14 13 12 12 12 12 11 10 10 11 11 11 10 9 9 9 9 9 8 8 8 8 8 8 8 8 8 7 8 8 9 9 9 9 9 9 8 8 7 7 7 6 6 6 7 7 7 6 5 5 4 5 5 5 5 5 5 4 4 3 4 5 5
5 4 5 5 3 7 9 7 9 8 5 4 3 3 6 8 11 12 12 13 13 13 14 14 14 15 13 12 12 12 12 14 15 15 14 13 13 12 12 12 11 11 11 11 12 11 10 10 9 9 10 9 8 8 8 7 7 7 7 7 7 7 7 7 8 8 8 8 8 8 8 7 7 7 7 6 5 6 7 7 7 6 5 4 4 4 5 4 4 5 6 5 4 3 4 6 5
6 4 4 5 5 7 9 8 8 7 8 7 5 4 5 7 11 12 12 12 12 12 13 14 14 15 13 12 12 11 12 13 14 15 15 14 13 12 12 12 11 11 11 11 12 11 11 10 9 10 10 9 8 8 7 7 6 6 6 6 7 6 7 7 7 7 7 7 7 7 7 7 7 7 7 6 5 5 6 6 7 6 4 4 4 3 4 4 4 4 5 5 4 4 5 6 4
5 5 3 3 5 7 8 9 8 7 8 8 6 4 5 7 12 13 12 13 12 11 13 14 13 13 12 12 12 12 12 12 12 15 16 15 13 12 12 12 12 11 11 11 12 11 11 11 10 9 10 10 9 8 7 6 6 6 6 6 6 6 6 7 7 6 6 6 6 7 7 7 7 8 8 6 5 5 5 6 6 5 4 3 3 3 3 4 3 3 4 4 4 5 6 6 5
7 5 4 3 5 7 7 8 10 10 8 7 6 4 5 9 12 12 13 13 12 11 12 13 13 13 12 12 12 12 12 12 13 15 17 16 14 13 12 12 12 12 11 11 11 11 10 10 10 10 10 10 9 8 7 7 7 6 6 6 6 6 5 6 6 6 6 6 7 7 7 7 7 8 8 6 5 5 5 5 5 4 4 3 2 3 3 3 3 3 4 4 4 4 5 6 5
7 4 4 3 4 6 7 8 11 12 9 8 8 5 6 10 11 11 13 13 11 11 11 11 12 12 11 11 11 12 12 12 14 16 17 16 15 14 13 13 13 12 11 12 11 11 10 11 11 11 10 10 9 9 8 8 8 7 7 7 7 6 6 6 6 6 6 6 7 7 7 7 7 7 7 6 5 4 4 5 5 4 4 3 2 3 3 3 3 3 3 4 4 4 4 5 4
4 4 4 2 1 2 4 6 12 12 7 8 8 6 7 10 11 11 11 12 12 11 12 11 11 12 11 12 12 13 12 12 15 16 16 16 15 15 14 13 13 12 11 12 12 11 11 11 11 11 11 10 10 9 9 8 8 8 7 8 8 7 7 6 6 6 6 7 7 7 7 7 7 7 6 5 4 4 4 4 4 4 3 3 3 3 3 2 2 2 2 2 3 4 5 5 5
6 5 5 5 1 2 3 2 9 10 6 7 9 8 8 10 11 11 11 12 13 13 13 13 14 13 11 12 13 13 11 12 15 16 16 16 16 16 15 13 14 13 12 12 13 12 12 11 11 12 11 11 10 10 9 8 7 7 7 7 7 8 7 6 7 6 6 7 7 7 6 6 6 6 5 5 4 4 4 3 4 3 3 2 2 2 2 1 1 2 1 2 2 4 5 6 6
6 5 4 6 5 2 0 2 5 5 3 4 9 9 7 9 9 11 13 12 12 12 13 13 14 14 12 12 12 12 12 12 14 15 16 17 16 17 15 14 14 14 13 13 13 13 12 12 11 11 11 12 11 10 9 8 7 5 5 5 5 7 7 6 6 6 6 7 7 7 6 6 6 6 5 4 4 4 3 4 4 3 3 2 2 2 2 1 1 1 2 2 2 3 5 6 7
5 4 3 4 7 4 1 3 3 2 1 2 7 7 5 8 8 10 11 12 10 10 10 11 13 12 12 13 12 12 14 13 14 15 16 17 17 17 16 14 14 14 14 14 13 14 13 13 12 12 12 12 11 11 10 9 8 5 3 3 4 5 6 6 6 6 6 6 7 6 6 6 6 6 5 4 4 4 4 4 4 4 3 2 2 3 2 1 1 1 2 3 3 2 5 6 6
3 4 4 4 8 5 2 4 7 4 3 4 6 5 5 8 9 9 9 10 10 9 9 10 11 12 11 12 12 13 14 13 14 15 15 17 18 18 17 15 15 14 14 14 15 14 13 14 14 13 12 12 11 12 11 9 8 7 4 4 4 4 6 6 6 7 6 6 6 7 6 6 6 6 5 4 3 4 4 4 3 3 3 3 3 2 2 1 1 1 1 2 3 4 4 5 5
3 2 3 4 8 6 1 5 8 5 6 7 8 5 4 9 11 10 9 9 10 10 11 11 11 12 12 12 13 13 13 13 13 14 15 17 18 18 17 16 16 15 15 15 15 14 14 14 15 14 12 12 11 12 12 10 9 8 6 6 6 6 6 6 6 6 7 6 6 7 7 6 6 6 5 4 3 3 4 3 3 3 3 3 2 2 2 2 2 2 1 1 3 4 4 4 4
3 1 1 4 7 7 5 6 7 4 2 7 11 6 1 6 10 11 11 12 13 12 14 15 12 12 12 12 12 13 13 13 13 14 16 17 18 18 18 17 16 15 15 15 15 14 14 14 15 15 13 12 12 13 13 11 9 9 8 7 6 6 5 5 5 4 5 6 6 6 7 6 6 5 5 4 3 3 3 3 3 2 2 2 2 2 2 1 2 2 1 2 3 3 4 3 3
3 2 2 5 6 8 8 7 7 3 2 5 10 8 3 2 7 12 14 13 14 14 16 16 15 14 14 13 13 14 14 13 13 13 14 17 18 18 18 18 17 16 15 15 15 15 14 14 15 15 13 13 12 13 14 13 10 9 8 7 6 5 4 5 4 4 4 5 5 6 5 6 5 4 4 4 3 2 2 2 2 2 1 1 1 2 2 1 2 2 1 2 2 2 3 3 3
2 2 3 4 5 8 8 7 6 3 2 4 7 7 5 1 6 10 12 12 14 16 17 17 17 16 15 14 15 15 14 14 13 13 14 16 18 19 18 18 17 16 15 15 15 15 15 15 15 15 13 13 13 14 15 14 12 9 8 7 6 5 4 4 5 4 4 4 5 5 4 4 5 4 4 4 3 3 2 2 2 1 1 1 1 2 2 2 2 2 1 1 1 1 2 2 2
2 2 3 2 3 5 6 6 4 3 6 5 7 9 6 2 6 7 9 11 13 14 15 16 17 17 16 15 15 15 14 13 13 14 15 17 18 18 18 17 17 16 15 15 15 15 16 16 15 15 14 13 13 15 15 14 13 11 9 8 6 6 5 4 4 4 4 4 4 5 4 4 4 4 4 4 4 4 3 2 2 2 2 2 2 1 2 2 2 2 1 1 0 1 1 1 1
5 5 4 3 2 2 3 3 2 4 6 3 7 11 7 2 5 6 7 8 10 12 12 15 16 16 16 15 14 15 14 13 13 13 16 18 18 18 18 18 17 16 15 15 15 15 16 17 16 16 15 14 13 14 15 15 14 13 11 9 8 7 6 5 4 4 5 5 5 5 4 4 4 4 4 4 4 4 3 3 2 2 2 2 2 2 2 2 2 2 2 1 0 1 1 2 2
8 5 5 3 2 1 4 3 3 7 5 2 5 9 8 5 2 5 7 6 8 11 12 17 19 17 15 14 14 15 14 14 13 13 14 17 18 18 18 18 17 16 15 15 15 15 15 16 17 17 16 15 14 14 15 15 15 14 13 11 9 8 7 6 5 5 5 5 5 5 4 4 4 3 3 3 4 4 3 3 2 2 2 2 2 2 2 1 1 1 1 1 1 1 2 2 3
10 7 6 4 0 3 6 5 5 6 3 3 3 6 6 4 1 4 8 8 8 9 11 16 19 19 16 15 15 14 13 15 14 13 13 14 16 17 17 17 17 16 16 16 16 15 15 15 17 17 17 16 15 15 15 15 15 15 14 12 10 9 8 7 6 5 5 5 4 5 5 5 4 3 3 3 3 4 3 3 2 2 2 2 2 2 1 1 1 1 1 1 1 1 2 2 2
11 9 8 7 4 4 7 6 6 6 4 4 4 4 4 3 2 3 6 8 7 7 9 13 18 20 18 15 15 14 14 14 14 13 13 13 15 18 18 17 16 16 17 17 16 16 15 15 16 17 17 17 16 15 15 15 15 15 14 13 11 10 9 8 8 7 6 6 5 5 5 5 5 4 4 3 3 4 4 3 3 3 2 2 2 2 2 2 2 2 2 2 2 1 2 2 2
11 9 9 9 7 6 7 5 5 6 5 5 6 4 4 2 4 4 4 5 6 6 7 10 15 17 16 13 14 15 14 13 13 13 13 15 17 18 18 17 17 17 17 17 16 16 15 15 16 17 17 17 17 16 16 15 15 14 14 13 12 11 10 10 9 8 7 7 6 6 6 5 5 5 4 4 4 4 4 4 4 3 3 3 2 2 2 2 2 2 2 3 3 2 2 2 2
9 9 9 9 9 8 6 5 6 6 5 5 6 4 1 2 5 6 5 5 6 7 8 10 13 15 15 11 11 13 14 13 13 13 14 16 19 19 18 18 17 17 17 17 16 17 17 16 16 17 17 18 18 17 17 16 15 14 14 14 13 12 11 10 9 9 8 7 7 6 6 6 5 5 4 5 5 5 5 5 4 4 4 3 3 3 3 3 3 3 3 4 4 3 2 2 3
7 9 10 9 8 8 7 7 7 8 7 4 5 6 3 4 6 6 5 6 7 8 10 12 13 15 16 13 10 10 11 12 12 12 13 16 18 19 18 18 17 17 16 16 17 18 18 17 17 18 17 17 18 18 17 16 15 15 14 14 14 13 12 12 11 11 10 9 7 7 7 7 6 6 5 5 5 6 6 6 5 4 4 4 4 4 4 4 3 3 3 4 4 3 3 3 3
5 8 10 8 5 6 6 6 7 8 8 4 6 8 6 5 4 3 5 7 8 9 11 12 13 15 16 15 12 10 11 12 12 12 13 15 17 18 18 17 17 16 16 16 18 18 18 17 17 18 18 18 18 18 17 16 16 15 15 15 15 14 13 12 12 11 11 10 8 8 8 7 7 7 6 5 5 5 6 6 5 5 5 4 4 4 4 4 4 4 4 4 4 3 3 4 3
9 5 8 10 7 7 7 6 7 8 8 6 7 8 8 6 4 5 6 7 8 10 11 12 13 15 15 15 14 13 12 12 12 12 12 13 16 17 17 16 16 15 15 16 17 16 16 16 16 17 17 17 17 17 16 16 16 15 14 14 15 14 13 12 11 11 10 10 9 8 8 8 7 7 6 5 5 5 6 6 6 6 6 5 5 5 5 5 5 5 4 4 4 4 4 4 4
11 7 7 9 7 8 8 7 7 7 7 7 7 8 7 3 1 5 7 7 9 11 11 11 12 14 14 15 14 13 11 11 11 12 11 12 15 16 15 15 14 15 15 14 15 15 15 15 15 16 16 16 16 16 16 16 16 15 14 14 14 14 13 12 11 11 11 10 9 9 8 8 8 7 6 7 7 6 6 6 6 6 6 6 6 5 5 5 5 5 5 4 3 3 4 5 4
11 8 8 9 7 7 7 8 9 7 7 6 7 8 4 2 4 4 7 7 8 9 9 9 10 12 13 14 15 12 8 7 8 9 11 13 15 15 14 14 13 13 13 13 14 14 14 15 15 15 16 16 16 16 16 16 16 15 14 13 13 13 13 12 12 12 12 11 10 9 9 8 7 7 7 7 7 7 7 7 7 6 6 5 5 5 5 5 5 5 5 5 4 4 5 5 5
13 10 9 10 9 8 7 8 8 7 7 6 6 7 2 4 3 2 6 6 6 8 9 7 8 11 12 13 15 15 9 5 5 5 5 7 10 11 11 11 12 12 12 13 13 13 14 14 14 15 15 15 16 16 16 15 15 15 15 14 13 13 12 12 12 13 13 12 11 10 9 9 8 8 8 8 8 8 7 7 7 7 6 6 6 6 6 6 5 5 6 6 6 6 6 5 5
Wind_Direction
150 158 166 177 188 235 237 227 223 185 211 85 96 104 80 78 108 116 120 128 123 116 122 128 127 124 104 85 112 75 44 53 50 81 108 123 137 137 141 140 138 131 126 124 121 116 112 116 113 111 112 115 119 113 110 110 108 107 103 104 105 107 110 105 102 95 88 96 106 111 112 114 114 116 120 116 110 103 104 110 111 111 111 109 108 106 104 103 102 100 98 97 96 96 96 96 95
168 170 173 188 205 237 270 224 247 138 158 116 83 79 105 120 124 124 127 134 123 127 133 128 118 108 88 87 121 98 51 46 72 88 100 127 134 132 139 140 137 132 128 125 121 117 118 118 113 112 116 122 119 113 113 109 106 103 97 93 97 103 102 94 94 90 88 106 111 105 109 116 124 127 123 113 109 110 111 110 109 111 111 109 107 106 105 103 103 102 100 98 96 95 95 96 96
173 168 181 205 223 234 268 230 263 114 143 115 85 94 126 127 123 122 117 117 121 135 136 124 116 106 121 120 103 85 75 75 97 102 114 133 134 136 143 140 138 133 128 127 122 116 118 119 114 113 117 120 116 115 113 108 105 101 98 92 95 101 99 93 90 92 99 125 111 103 108 117 129 129 119 109 108 112 114 111 109 110 111 110 108 107 107 104 102 101 99 96 95 93 93 95 96
175 183 206 230 237 233 257 226 27 2 120 106 102 109 124 119 116 115 111 118 129 139 137 127 114 55 78 106 82 79 97 99 105 111 126 137 134 138 143 140 139 135 131 134 133 118 112 115 113 118 121 122 123 120 115 107 102 98 96 93 95 96 95 91 89 94 113 134 109 103 110 118 126 120 114 114 113 110 109 108 108 111 112 112 110 109 107 103 101 99 98 95 92 92 92 94 94
184 203 229 253 266 262 288 296 64 62 63 72 109 111 114 118 118 117 119 128 138 141 142 136 114 93 73 69 62 93 108 111 112 118 123 127 132 138 141 141 139 138 134 135 138 127 120 123 122 127 126 129 125 118 113 107 104 102 99 98 96 93 93 87 85 92 109 119 105 104 111 115 115 110 114 120 116 110 108 107 108 110 111 112 110 108 106 104 101 100 99 96 92 93 93 94 95
201 218 229 245 277 354 281 283 100 98 43 14 97 113 118 123 126 124 125 133 139 140 145 143 128 124 94 61 60 76 107 123 121 121 122 127 134 138 139 140 138 136 131 128 129 125 129 131 128 130 130 128 119 113 111 108 108 102 97 96 94 91 91 86 85 95 106 105 102 110 114 110 107 108 115 116 110 108 109 110 110 110 110 111 107 105 106 105 104 102 99 97 95 94 94 93 94
230 238 225 237 236 210 246 195 79 87 61 5 80 116 126 128 131 132 133 139 139 142 151 142 135 123 104 98 77 66 96 118 123 123 127 132 136 138 138 139 136 132 127 123 119 121 127 127 128 130 128 122 115 113 107 103 101 95 92 90 89 87 88 89 91 99 103 100 107 115 112 108 109 111 115 111 106 107 108 110 109 108 109 108 104 103 104 105 106 104 102 100 98 96 94 92 92
249 265 267 278 241 203 257 127 88 82 85 40 82 119 129 132 138 142 142 147 147 150 155 146 139 117 105 116 92 84 101 112 118 121 129 133 136 139 139 138 134 130 127 123 119 120 122 122 126 127 122 115 112 110 103 99 96 94 93 91 91 88 89 91 92 98 103 107 114 114 111 111 113 113 115 112 109 109 109 110 109 107 108 107 104 103 103 106 106 107 107 103 99 97 94 92 90
237 265 300 289 273 264 272 70 86 75 93 117 113 119 130 137 144 147 147 148 152 153 149 146 138 117 109 103 98 105 107 114 119 123 131 134 137 139 139 139 133 131 128 124 122 120 120 122 124 122 117 113 112 106 102 99 95 96 96 95 91 89 91 92 92 101 107 109 112 111 108 109 112 114 115 114 112 111 110 109 107 107 109 108 106 105 106 106 105 107 106 101 99 97 93 90 87
235 252 305 285 278 286 244 71 85 72 95 130 126 128 137 143 148 150 149 147 154 152 143 135 122 122 116 103 103 115 118 125 125 126 133 135 137 138 138 137 132 132 128 124 123 122 122 122 120 117 116 112 108 101 99 97 93 94 95 94 89 88 90 91 98 109 107 106 109 109 105 104 110 112 113 113 112 111 110 107 107 108 108 107 106 106 107 106 105 104 101 100 101 98 93 88 82
263 222 281 287 269 267 131 81 103 102 105 132 130 132 141 147 150 149 146 147 156 152 144 136 121 123 115 105 102 117 128 132 129 129 135 137 137 137 136 134 132 131 126 123 122 124 123 119 115 113 111 105 103 101 100 99 95 90 89 89 88 88 87 91 101 107 106 106 107 105 106 107 108 109 111 112 112 113 111 110 109 109 108 108 108 107 107 107 104 102 102 103 100 96 93 88 83
279 261 268 296 306 357 74 91 110 119 122 133 132 134 146 153 152 149 148 149 156 155 148 136 127 128 119 111 110 128 136 135 131 132 136 138 137 136 135 132 132 129 123 121 120 122 120 116 112 108 105 101 100 101 99 98 96 92 89 89 89 88 88 93 100 102 102 105 106 105 106 107 108 111 112 110 112 114 114 112 111 111 112 111 110 106 106 106 102 101 104 105 99 96 92 90 88
271 303 310 303 314 344 41 103 118 126 132 132 134 138 148 157 155 152 149 147 155 158 146 132 135 132 115 111 122 138 141 136 133 134 138 139 137 135 134 131 131 128 121 120 119 119 118 115 111 106 101 100 100 97 97 96 94 92 89 88 88 87 89 97 103 104 102 103 106 105 104 105 108 111 111 109 111 113 113 113 111 111 110 109 109 107 105 103 100 101 103 103 101 97 93 90 89
282 308 309 296 298 342 25 100 133 136 134 131 136 143 154 161 151 150 147 146 153 151 135 135 139 122 115 123 136 146 142 139 137 136 139 138 136 134 132 131 131 126 119 119 119 119 119 114 112 109 102 101 102 99 97 95 93 92 89 89 87 85 88 95 102 104 104 105 104 103 105 106 108 107 108 111 112 111 110 110 110 111 109 107 107 106 106 104 103 104 102 101 100 97 93 90 90
287 303 300 289 306 69 29 117 147 146 132 134 148 153 152 146 145 152 150 143 137 131 130 142 147 129 141 148 148 147 142 142 139 137 139 136 135 132 130 132 130 124 119 121 120 119 116 111 113 113 110 109 106 104 101 96 95 93 89 90 88 88 89 94 100 103 106 107 106 105 106 107 107 107 108 111 110 109 109 109 109 110 108 107 105 103 104 104 104 104 102 102 100 99 97 94 92
280 298 280 276 330 80 11 189 160 153 132 137 156 151 139 137 147 147 138 133 129 135 142 144 148 153 154 149 141 140 141 143 139 139 139 136 135 131 131 134 130 125 120 121 120 119 115 113 115 116 117 114 109 108 104 98 96 93 89 88 88 91 93 97 101 104 105 106 109 110 108 108 106 106 105 105 107 109 110 111 110 110 109 108 107 105 103 100 98 98 97 99 100 100 101 98 93
272 279 272 287 342 50 49 15 183 141 133 144 158 149 137 138 136 116 121 135 136 137 135 127 130 142 139 134 134 137 140 141 141 141 139 137 137 135 135 135 134 129 122 123 123 120 115 113 113 114 116 113 111 110 107 103 99 95 90 86 86 89 92 97 101 102 103 105 109 108 107 108 106 105 105 103 103 104 106 106 107 107 107 105 102 101 97 94 95 95 93 96 100 100 97 92 88
257 274 280 313 1 27 45 60 146 134 139 150 161 151 139 141 135 130 139 141 137 131 124 120 113 114 119 125 132 136 141 143 145 145 143 143 143 141 140 139 139 132 126 126 125 121 116 114 112 113 114 113 113 111 110 108 103 99 93 88 87 89 92 97 99 102 104 106 106 103 104 108 108 109 110 110 109 107 109 111 111 109 105 101 101 102 100 98 100 97 94 96 98 97 93 88 91
255 286 285 341 15 8 29 102 157 148 142 145 160 150 138 143 141 148 148 141 145 137 131 127 118 116 120 128 135 138 143 147 149 150 147 148 146 143 141 140 140 134 132 130 128 127 122 116 113 113 114 115 114 112 113 111 109 106 100 95 91 91 94 95 95 98 103 106 105 105 106 107 108 110 114 116 117 117 117 119 120 118 118 117 117 117 115 112 106 98 93 93 91 95 105 110 111
254 278 287 14 15 351 36 120 164 144 138 143 156 146 139 142 143 160 151 144 155 148 142 139 133 135 134 136 140 142 147 150 152 153 149 147 145 141 141 141 139 135 133 131 129 130 126 119 116 115 115 115 114 112 111 111 111 108 103 100 98 97 97 96 96 98 103 106 106 107 108 107 107 108 110 114 115 116 116 115 114 116 120 121 120 122 115 104 97 90 86 88 90 99 112 110 102
263 275 295 355 352 335 71 130 149 139 142 142 146 144 141 142 148 165 153 152 161 156 152 145 142 144 143 143 145 147 150 153 155 154 149 147 145 141 141 139 133 132 132 130 128 128 126 122 122 119 116 115 112 108 107 107 107 105 104 103 102 102 101 101 102 104 107 107 105 108 111 111 111 108 108 112 116 118 118 115 114 116 118 115 114 121 116 102 100 93 87 96 103 101 95 90 87
271 251 278 336 337 338 90 134 140 141 147 139 146 146 138 141 149 162 160 161 153 150 150 142 143 146 146 146 147 150 152 155 156 154 150 148 145 140 138 136 130 131 132 132 128 127 127 124 126 123 116 113 109 108 107 105 105 103 102 102 103 103 105 107 108 110 111 109 106 107 110 110 111 109 109 111 114 116 117 115 116 118 117 114 112 114 114 109 108 100 91 91 87 89 87 83 84
269 251 295 344 341 176 134 138 138 143 148 143 147 139 138 144 140 153 159 120 119 130 140 141 143 144 146 147 148 152 153 156 157 153 152 149 147 142 139 138 134 132 132 133 131 129 130 128 128 124 118 115 112 111 109 107 105 102 101 102 103 104 108 110 111 114 116 117 114 109 106 106 108 108 108 109 109 109 108 108 110 111 109 108 105 103 102 98 92 85 81 76 68 76 83 86 90
263 296 350 7 17 117 136 139 141 140 138 137 138 137 145 144 135 146 133 105 118 125 135 140 141 144 146 149 150 151 153 156 154 151 151 148 146 143 140 138 134 132 133 134 133 133 134 132 129 125 119 117 116 114 111 109 105 103 103 102 102 105 108 109 111 115 118 121 119 113 109 108 109 110 110 110 109 107 104 105 105 104 102 97 95 92 87 80 74 68 65 67 68 70 80 87 92
257 316 13 44 62 109 131 134 136 128 122 131 139 141 140 132 130 133 124 124 126 128 139 142 142 145 147 150 149 150 154 154 152 151 149 146 146 143 140 138 135 136 137 136 135 134 134 134 131 126 122 120 118 117 113 111 108 105 104 101 100 102 104 106 110 113 115 116 114 113 112 110 110 110 110 110 109 108 107 107 103 98 93 87 86 81 73 68 61 56 52 58 67 71 82 87 91
352 337 41 76 97 123 135 127 124 119 122 146 143 135 128 130 128 113 121 131 130 134 143 145 146 147 149 151 148 151 155 154 153 151 147 146 147 147 144 141 140 139 138 137 136 134 134 135 132 125 123 123 122 120 117 113 112 109 106 102 100 101 103 106 109 111 111 111 109 108 108 109 109 107 106 107 108 108 107 105 101 97 89 84 82 74 64 58 54 47 41 48 61 68 78 83 86
358 27 78 94 104 114 131 118 109 109 120 150 142 128 130 148 157 121 131 138 138 142 144 148 150 148 150 150 148 153 157 155 154 152 150 150 152 152 149 147 143 140 140 140 137 135 137 136 133 128 124 125 127 123 120 117 115 114 110 107 105 104 106 108 109 109 109 109 109 106 104 105 106 108 108 109 109 106 105 101 97 95 90 84 78 69 57 50 47 39 33 39 48 59 74 81 85
342 113 97 104 102 96 121 116 111 106 103 147 136 125 137 168 190 130 141 148 148 148 147 153 154 149 151 149 148 156 158 156 155 157 158 157 158 157 153 151 146 142 144 142 139 139 140 137 133 133 130 129 130 127 124 122 119 115 111 109 108 107 107 110 110 110 110 112 113 111 107 104 105 108 109 111 111 106 104 101 97 92 88 84 76 66 58 48 41 36 30 32 38 53 75 84 93
196 151 114 119 116 101 108 117 128 115 117 164 136 132 148 158 131 127 145 153 151 152 151 155 154 150 152 150 151 157 159 158 161 165 164 161 160 159 155 152 150 146 145 142 143 144 141 138 135 136 136 134 132 131 128 125 123 118 112 111 111 110 110 111 111 113 114 116 116 113 109 105 104 106 109 112 114 111 108 105 101 95 89 85 77 66 57 47 41 42 37 37 43 58 79 86 95
188 180 151 140 135 118 105 119 139 124 137 163 128 143 149 131 126 136 151 153 153 157 155 156 155 153 154 154 156 160 162 163 166 167 165 164 162 161 157 153 153 147 144 146 147 147 142 141 141 141 141 139 135 132 131 129 126 122 116 116 116 116 117 116 116 117 117 118 116 113 111 107 104 107 111 114 117 118 116 111 106 102 96 87 77 70 60 47 41 41 38 46 55 68 81 75 79
193 184 175 173 158 141 134 135 146 139 139 161 117 164 149 131 136 146 154 157 160 159 158 160 157 157 158 159 161 162 165 169 170 167 166 167 165 164 160 156 156 149 146 150 149 148 146 145 145 144 145 143 139 135 134 131 128 124 122 122 122 122 123 124 124 124 122 121 118 115 113 110 110 112 116 118 120 123 121 115 111 109 103 91 79 76 67 49 42 37 26 41 58 68 91 82 74
197 183 181 180 143 138 139 148 166 156 150 185 195 163 148 141 144 151 158 164 167 161 160 164 162 162 162 162 166 164 166 172 172 168 167 169 168 167 164 161 160 154 151 150 150 151 149 148 149 148 148 146 142 139 135 133 129 123 121 124 127 128 128 128 128 128 128 125 122 118 115 115 119 121 124 125 123 122 120 116 116 114 103 93 85 76 66 51 49 44 26 34 49 48 84 87 83
200 198 176 145 139 151 148 164 192 167 146 175 199 161 146 151 152 154 162 170 174 166 163 168 167 165 164 166 170 167 166 171 173 170 168 171 172 169 167 166 163 158 154 152 153 156 153 152 155 152 150 149 146 144 141 137 133 125 125 129 131 132 132 132 132 131 131 129 125 122 119 120 126 128 129 129 124 122 120 118 120 118 107 97 90 79 71 58 54 52 31 26 32 32 58 70 77
206 201 172 146 155 162 155 162 185 175 153 170 198 181 146 153 157 158 163 172 178 172 167 171 170 168 168 170 173 170 169 171 174 172 170 172 173 171 170 168 166 161 158 156 156 159 157 156 158 153 151 153 150 150 149 144 140 136 135 136 135 136 136 137 138 137 138 136 130 127 125 127 130 132 132 129 122 120 119 117 118 121 113 103 96 94 85 63 48 49 38 28 30 34 42 47 53
201 190 152 166 166 158 152 155 168 168 157 168 196 196 148 151 158 162 166 173 181 175 171 174 172 171 170 173 175 173 173 174 174 172 172 172 171 172 171 169 169 166 162 160 158 160 159 157 158 155 155 157 154 155 155 152 150 147 144 142 141 143 140 138 142 142 142 138 132 132 130 131 133 134 134 132 123 121 123 118 120 125 119 108 100 105 94 68 45 36 33 28 32 44 41 38 40
185 172 150 170 177 156 140 141 155 162 161 174 197 188 153 157 163 168 168 176 185 176 174 178 175 172 173 177 175 174 178 175 173 174 173 171 171 172 171 170 171 168 166 162 162 164 162 161 160 159 163 162 158 161 164 163 161 157 154 152 151 152 147 144 146 145 142 135 131 134 135 134 135 136 137 137 128 124 126 125 128 129 122 110 96 96 92 68 44 30 26 16 24 47 45 40 35
155 167 164 119 22 84 92 120 144 156 165 174 190 189 162 164 167 171 171 179 189 181 178 181 179 176 176 180 176 174 180 175 171 175 174 172 172 170 169 170 170 168 168 167 169 170 168 167 165 165 168 167 167 169 171 171 165 163 163 160 156 152 149 150 150 147 141 133 131 135 137 138 139 140 140 140 135 130 127 131 136 135 128 114 95 90 83 64 40 31 21 2 25 45 35 38 36
165 190 170 130 117 343 9 76 131 150 174 163 177 194 179 166 163 169 175 183 191 188 184 185 184 181 178 181 179 175 178 175 171 172 174 174 173 171 170 171 172 171 172 173 175 174 173 173 170 169 170 172 175 173 174 174 168 167 164 160 154 147 149 154 151 147 139 134 135 136 137 142 145 143 142 142 140 139 135 139 144 143 135 121 122 123 101 82 46 27 17 8 40 63 47 39 27
175 187 170 150 167 204 8 86 109 152 195 161 179 197 172 156 163 172 180 189 196 193 189 190 187 182 181 182 179 177 178 176 172 171 174 176 174 172 171 174 176 176 176 178 178 176 176 177 174 174 174 176 179 177 176 174 170 167 154 147 144 142 146 142 134 137 137 136 139 141 140 145 148 146 147 147 146 148 147 150 152 151 150 145 154 151 131 99 67 27 36 28 16 80 77 54 30
191 161 170 181 167 176 184 148 142 171 212 177 197 204 156 151 171 178 185 192 195 200 203 202 193 188 187 183 180 179 179 177 176 175 176 175 175 174 174 176 179 179 179 180 180 178 179 179 177 176 177 178 180 179 179 175 170 166 147 135 125 127 136 132 131 138 140 139 143 146 148 151 153 152 153 152 151 152 150 153 152 151 154 150 156 156 140 103 84 50 56 42 359 35 74 65 45
205 155 164 192 170 168 336 159 156 167 214 213 207 212 174 171 181 179 184 190 190 200 214 215 200 192 190 186 184 182 180 178 179 179 178 176 176 176 176 178 180 182 182 183 183 181 180 180 177 176 177 180 181 181 179 175 171 170 161 154 144 139 143 147 151 152 150 153 154 153 152 156 159 158 158 156 153 150 144 148 151 152 150 146 158 159 135 112 111 110 75 57 30 28 46 59 55
191 174 146 149 155 149 166 178 164 178 214 201 201 223 187 175 185 179 171 185 193 191 202 213 202 193 194 191 187 184 181 181 182 182 180 178 177 177 178 181 183 184 185 186 185 183 180 178 177 176 177 180 181 182 181 179 177 176 174 171 168 165 162 160 162 159 158 161 158 151 151 158 164 164 166 162 157 152 146 147 152 159 152 147 159 155 146 160 153 133 81 59 58 43 32 44 58
162 143 132 128 127 133 166 197 198 203 182 173 195 223 188 166 185 179 169 184 195 191 196 203 200 196 196 194 190 185 183 183 185 185 183 181 180 179 180 184 187 187 186 186 186 184 181 177 176 177 178 180 181 182 183 184 183 183 186 184 178 177 172 161 159 156 153 153 150 148 151 157 164 172 173 172 171 162 154 156 161 167 159 149 154 162 179 176 139 121 80 63 63 57 43 29 37
126 75 229 178 146 146 169 200 220 231 77 152 195 222 260 202 168 168 174 185 193 195 199 199 198 200 199 198 192 186 187 186 184 187 186 184 182 182 184 185 189 190 186 187 187 184 181 177 177 177 178 179 180 182 185 187 189 188 193 194 187 185 175 156 157 156 147 148 150 151 152 154 161 173 174 178 186 184 185 181 170 171 167 158 169 183 195 157 119 115 96 90 68 55 56 33 13
61 49 234 200 175 173 183 209 227 237 229 198 191 209 243 198 130 153 174 190 197 197 199 197 196 197 198 200 194 189 189 187 186 188 188 186 184 185 186 186 189 190 187 187 187 184 181 178 177 178 180 180 180 182 185 189 192 191 195 197 190 185 176 158 157 155 150 155 154 152 150 150 158 171 178 186 194 199 208 204 193 194 198 205 210 205 181 149 134 127 115 129 106 48 41 31 17
74 176 188 157 183 187 201 224 229 232 243 231 180 192 231 171 136 159 180 199 207 199 197 196 194 195 197 199 196 191 189 188 189 189 187 187 187 186 187 187 189 189 188 188 187 184 182 181 179 180 182 183 183 184 185 190 193 193 198 200 194 185 178 169 159 154 158 162 163 159 154 156 162 170 179 187 194 201 204 208 214 215 229 231 223 226 186 167 166 156 141 151 152 10 355 349 346
156 166 138 123 139 176 230 233 247 238 233 218 169 186 226 220 156 172 187 204 209 200 194 191 191 196 198 199 197 191 187 187 189 189 187 187 188 189 188 188 188 188 187 186 187 186 185 184 183 182 185 186 187 187 188 190 193 196 199 201 200 192 185 180 177 177 173 171 173 168 161 163 167 172 178 180 188 194 194 204 220 223 238 235 217 223 210 187 184 175 158 154 183 302 304 313 315
180 171 138 133 63 277 230 196 222 239 215 144 157 185 215 234 163 157 176 190 200 199 193 187 188 193 195 199 199 191 187 187 186 189 188 186 190 192 190 189 188 188 187 185 188 188 187 187 186 184 186 188 190 191 192 193 195 197 199 201 204 201 194 190 190 192 185 182 182 172 166 167 168 175 177 176 183 185 187 200 222 231 236 236 223 218 210 203 203 183 166 191 224 274 296 302 300
197 190 162 167 356 255 230 201 213 234 191 125 164 190 210 235 218 152 170 181 193 197 193 187 186 188 189 195 197 190 187 187 185 189 191 188 190 193 195 194 190 189 190 189 190 190 187 188 188 188 189 190 193 194 196 198 198 199 199 200 202 202 202 199 198 200 194 191 188 180 178 174 172 179 175 173 179 178 187 201 215 228 230 231 229 223 219 222 237 228 214 240 245 249 282 293 292
201 195 176 175 183 224 232 220 223 232 196 149 149 184 218 219 184 162 172 183 193 198 193 184 182 184 184 189 195 192 190 189 187 189 191 191 191 194 198 197 192 192 194 193 193 192 189 189 190 192 192 193 196 197 199 203 203 203 201 200 202 202 203 204 204 204 197 194 194 192 191 184 180 183 176 173 176 178 186 197 207 221 230 227 224 226 233 239 251 264 263 258 260 249 260 274 277
206 203 188 184 180 205 231 229 224 228 210 172 155 188 229 184 143 135 150 174 189 199 190 173 175 181 177 181 194 195 191 189 187 188 190 192 194 196 198 197 195 196 196 196 195 193 192 191 190 192 193 195 198 200 202 205 207 207 205 203 203 202 203 205 207 207 202 199 198 197 199 198 194 186 179 182 186 189 191 195 207 214 217 227 230 223 231 239 244 256 267 268 267 248 240 260 269
204 208 205 202 192 198 228 248 243 245 232 185 178 218 265 123 146 149 155 172 177 189 183 165 168 174 170 173 191 196 192 188 187 188 189 191 194 198 199 198 198 199 198 197 194 192 193 191 189 191 194 196 199 201 204 207 208 209 208 207 206 205 205 206 208 210 209 209 208 203 199 204 205 192 189 196 199 203 203 201 205 205 203 215 221 219 227 229 232 248 258 264 268 257 241 254 265
186 204 215 214 212 218 227 229 233 250 254 207 200 235 218 161 171 167 180 186 170 181 184 169 166 170 169 172 184 192 193 190 187 188 189 189 194 198 200 200 201 201 199 196 193 191 191 189 189 191 194 196 198 202 205 207 208 209 210 210 209 208 208 210 213 214 215 215 215 212 205 201 203 203 205 206 201 204 208 205 204 198 195 206 211 214 223 223 225 240 250 258 266 268 266 262 263
191 199 208 202 225 250 243 228 217 228 240 215 205 231 228 205 188 161 192 190 166 176 181 167 164 172 176 176 177 183 189 192 190 190 191 189 192 197 199 201 203 202 198 195 193 192 192 192 191 190 193 196 199 203 206 207 207 209 210 212 213 214 214 217 218 217 218 217 215 214 210 203 202 207 211 212 204 201 204 205 205 200 195 203 208 208 212 215 223 236 244 252 257 262 272 269 260
228 235 213 197 208 221 216 230 227 219 230 223 209 223 234 231 194 157 185 178 155 166 172 165 166 173 180 178 174 177 184 191 192 191 191 189 190 195 198 200 201 200 199 197 194 193 193 194 193 193 195 198 202 206 208 208 208 209 210 211 214 217 219 222 222 218 216 217 217 215 211 210 209 208 210 215 217 210 206 206 206 204 201 201 203 204 205 208 220 234 243 242 234 233 254 266 262
227 255 225 202 217 225 211 220 232 232 237 227 215 216 221 232 121 139 164 156 150 161 166 169 169 170 177 176 172 172 177 185 191 192 189 187 191 195 196 197 197 196 197 196 194 195 196 195 193 193 195 198 204 208 207 208 210 211 211 210 211 215 219 222 223 219 216 218 220 218 216 214 213 213 213 215 218 216 212 212 212 209 205 200 201 207 206 208 219 232 246 248 230 222 241 253 257
204 224 213 200 217 233 224 223 228 239 241 230 230 228 201 65 42 105 134 138 149 159 162 169 170 167 171 171 170 168 162 167 178 185 188 187 192 195 193 193 194 193 193 190 191 193 195 196 194 193 194 197 203 207 206 207 211 212 212 211 211 213 216 220 221 219 220 222 223 223 223 220 216 216 219 218 217 216 215 217 220 219 213 204 201 207 211 214 224 231 240 247 237 232 244 246 248
195 206 212 207 210 219 222 222 219 227 237 237 247 245 162 67 22 86 120 136 149 156 161 166 167 167 167 164 168 170 159 138 134 139 152 164 174 181 183 188 191 190 188 186 188 191 193 195 194 195 197 198 201 202 202 204 207 210 212 213 214 214 214 218 220 218 219 221 222 222 224 225 224 222 220 219 217 216 215 216 221 221 220 216 206 209 216 219 227 234 240 244 234 226 237 244 247
Height
794 795 794 795 793 794 792 792 807 802 799 805 798 808 812 801 801 806 813 811 812 812 805 806 807 809 811 811 813 815 816 820 826 828 837 837 833 838 838 839 841 842 843 843 844 844 844 844 844 845 846 847 847 846 846 847 847 847 847 848 848 848 848 849 850 851 851 848 848 848 850 851 850 849 850 850 852 852 852 852 852 852 852 852 853 854 854 855 855 855 856 856 857 857 857 857 858
795 795 794 794 791 794 792 789 812 810 805 812 799 808 810 800 805 810 813 809 811 810 804 806 807 809 808 806 807 811 820 821 820 824 829 832 835 839 839 841 841 842 843 843 844 844 845 845 845 846 847 848 847 847 847 847 848 848 848 848 849 849 849 850 852 853 852 849 849 850 852 852 851 850 850 851 852 852 853 853 853 853 853 853 854 854 855 855 856 856 857 857 858 858 858 859 859
795 794 792 794 790 789 789 792 814 813 809 815 807 806 804 804 809 809 809 807 806 804 805 807 810 811 809 812 811 816 827 823 819 823 828 834 836 838 841 842 842 843 844 845 845 845 846 846 846 847 847 847 847 847 848 848 848 848 849 849 849 850 850 852 854 855 852 849 849 851 853 852 851 851 851 852 852 853 853 854 854 854 854 855 855 855 856 856 857 858 858 858 859 859 860 860 860
793 793 791 791 791 790 790 795 809 811 805 807 811 806 802 807 808 809 808 806 804 803 808 810 814 811 810 819 816 819 827 824 823 825 829 833 835 839 841 842 843 844 845 846 846 846 846 846 846 847 847 847 848 848 848 849 849 849 849 850 850 850 851 853 855 856 852 849 850 852 852 852 852 852 852 852 853 854 854 854 855 855 855 856 856 856 857 857 859 859 859 860 860 860 861 862 862
793 792 789 788 793 793 793 797 804 812 806 803 812 808 802 807 808 811 808 805 804 805 809 810 818 814 810 817 814 822 829 824 825 826 829 833 836 840 842 844 844 845 846 847 847 848 847 847 848 848 849 849 849 849 849 849 849 850 850 851 851 852 852 854 855 854 851 850 851 852 852 852 853 853 854 853 854 855 855 855 855 856 856 857 857 858 858 859 860 861 861 861 862 862 862 863 863
791 791 788 786 789 789 799 808 810 811 806 802 806 806 803 806 808 811 809 807 805 805 808 809 814 814 817 818 813 822 825 824 827 827 830 834 838 841 842 844 845 846 847 848 849 850 850 850 850 850 850 850 850 850 850 850 850 851 851 851 852 852 853 855 856 854 851 851 852 852 852 853 854 854 854 854 855 856 856 856 857 857 857 858 859 859 860 861 861 862 862 862 863 863 863 864 864
791 794 788 789 789 788 800 805 808 808 805 803 800 803 804 805 807 810 812 812 810 808 808 809 807 814 823 820 820 825 823 824 826 828 833 835 839 841 843 845 845 847 847 849 850 850 851 851 851 851 851 851 851 851 851 851 851 852 852 852 853 853 854 856 856 854 851 853 853 852 852 854 855 855 855 855 856 857 857 858 858 858 859 859 860 861 861 862 862 862 863 864 864 864 865 865 865
791 794 787 794 795 791 797 793 799 805 806 806 799 800 803 804 807 810 814 813 815 813 811 809 804 818 825 818 827 830 825 828 827 831 835 837 840 841 844 845 845 847 848 849 850 850 851 851 851 851 852 852 851 851 852 851 852 852 853 853 853 854 855 856 856 854 853 855 854 853 854 855 856 856 856 857 857 858 858 859 860 860 860 861 861 862 863 863 864 864 865 865 865 865 865 866 866
789 791 789 796 799 797 801 795 801 807 807 807 801 802 803 804 805 809 814 813 813 813 813 809 805 821 826 822 832 829 827 831 830 834 836 839 841 842 844 844 846 847 848 849 850 851 850 851 851 852 852 852 852 852 852 852 853 853 854 854 854 854 855 857 857 855 854 856 855 854 855 855 857 857 858 858 859 859 859 860 861 862 862 862 863 863 864 865 865 866 866 867 867 866 866 867 867
788 790 794 801 804 808 808 804 810 812 809 806 803 803 804 804 805 808 812 814 812 812 812 806 808 820 824 828 833 828 830 832 832 836 838 840 841 843 845 845 847 847 848 849 850 851 851 851 851 852 852 853 853 853 853 853 853 853 853 854 855 855 856 857 857 855 855 856 855 855 855 856 857 858 859 860 860 861 861 862 862 863 863 864 864 865 866 866 867 867 868 868 868 868 867 868 868
797 791 793 803 805 811 811 810 815 814 810 806 803 802 804 804 806 809 811 814 811 812 811 808 816 819 823 831 832 830 831 833 834 837 839 841 842 844 845 846 847 847 848 849 850 850 850 851 851 852 853 853 854 853 854 853 854 854 854 855 855 856 857 858 857 855 856 856 855 856 857 858 859 859 860 861 861 862 863 863 864 865 865 866 866 867 867 867 868 868 869 869 869 869 869 869 868
807 796 795 810 805 802 802 805 811 814 812 808 807 803 802 803 807 812 813 815 812 814 812 811 816 815 826 835 832 832 831 834 835 837 840 842 843 844 846 847 848 848 849 849 850 850 850 852 852 853 853 854 854 854 854 854 855 855 855 855 855 856 858 859 857 856 856 856 856 857 858 859 860 861 861 862 863 863 864 865 865 866 866 867 868 868 868 868 869 869 869 869 869 870 870 870 870
804 797 799 813 803 794 797 803 808 813 815 811 809 803 801 804 809 811 812 815 814 818 814 809 810 811 828 835 831 832 832 835 836 838 841 842 844 845 846 847 848 849 849 850 850 850 851 852 852 853 853 854 855 855 855 856 856 856 856 856 856 857 859 860 858 857 857 857 857 858 860 861 861 862 862 863 864 865 865 866 867 867 867 868 869 869 869 870 870 870 870 870 871 871 871 871 872
796 794 797 807 797 795 802 806 808 813 817 810 806 803 802 805 805 806 810 818 818 816 811 805 805 815 829 834 835 833 832 835 836 839 841 843 845 845 847 848 849 850 850 851 850 850 851 852 853 854 854 855 856 856 856 856 857 857 857 857 858 859 860 860 858 859 860 860 860 860 862 863 863 863 863 864 865 866 867 868 868 868 868 869 870 870 871 871 871 871 871 872 872 872 872 873 873
792 791 795 801 796 800 807 805 804 811 815 809 806 804 804 804 802 806 809 818 820 809 807 806 805 817 827 831 835 830 831 836 836 840 841 844 845 846 848 848 850 850 851 851 851 851 851 853 854 855 855 856 856 856 856 856 857 857 857 858 859 861 862 860 859 861 861 861 861 862 864 864 866 865 865 866 867 868 868 869 870 870 870 870 871 871 872 873 872 872 872 872 873 873 874 874 874
787 790 798 801 798 806 808 800 798 806 811 809 806 802 808 806 801 808 807 809 817 809 809 812 808 814 819 822 827 826 831 836 837 840 842 844 846 847 849 849 851 851 852 852 852 852 852 854 854 856 856 856 857 857 857 857 858 858 859 859 860 862 863 861 859 861 862 862 862 863 865 866 868 868 867 867 868 870 870 871 872 873 873 873 872 873 874 874 874 873 873 874 874 875 875 875 875
786 793 802 800 797 807 809 803 803 806 810 811 805 801 810 812 805 808 805 805 815 814 813 813 808 809 812 817 822 826 832 835 837 840 842 845 846 847 849 850 851 851 853 853 853 853 853 855 855 856 856 857 858 857 858 858 859 860 860 861 861 862 863 862 860 861 863 863 864 865 867 868 870 871 870 869 869 870 871 872 873 874 874 874 873 873 874 874 875 875 875 875 876 876 876 876 876
793 800 803 800 798 803 805 805 807 804 807 810 805 802 810 815 812 809 809 813 815 817 817 813 811 810 812 818 823 828 833 835 838 840 841 844 845 846 848 849 851 852 853 854 854 854 854 855 855 856 857 857 858 858 859 859 860 861 862 862 863 863 863 863 861 861 863 865 866 867 868 870 871 873 873 873 872 872 873 874 875 876 875 875 876 875 875 877 877 877 877 877 877 877 877 877 877
798 801 802 799 797 797 795 798 801 799 803 808 805 801 807 813 811 808 814 821 818 821 822 817 819 819 819 822 826 830 833 836 837 839 841 842 844 845 847 849 851 852 853 854 855 855 855 856 856 857 857 858 858 859 859 860 861 862 863 864 864 864 864 864 863 862 863 865 868 869 869 870 872 873 874 875 876 876 877 877 878 878 879 879 881 880 879 879 879 879 879 878 878 878 878 878 878
796 799 803 798 793 793 790 793 796 796 800 807 807 802 807 809 807 808 815 822 820 822 823 821 825 825 823 824 826 830 833 836 837 838 840 842 844 845 847 849 851 852 853 854 855 856 856 856 857 857 858 858 859 859 860 861 862 863 864 865 865 866 866 866 865 864 864 866 868 870 871 871 872 873 874 876 877 878 878 878 879 880 881 881 882 882 881 881 880 880 879 879 878 878 879 879 878
794 797 802 794 789 793 791 792 795 796 799 804 807 805 809 807 805 808 812 821 823 819 816 816 822 823 824 824 826 830 832 835 837 838 840 842 844 845 847 848 851 853 854 855 856 857 857 857 858 858 859 859 859 860 860 861 862 863 864 865 867 867 868 868 868 867 866 866 868 871 872 872 873 874 875 876 877 878 879 879 880 881 881 881 882 882 882 881 880 880 880 879 879 879 879 878 878
794 793 792 787 788 796 793 791 794 797 799 803 807 808 809 806 807 809 810 820 821 814 810 811 815 819 822 823 826 829 831 834 836 838 840 843 844 846 848 849 851 853 854 856 856 857 858 858 859 858 859 860 860 861 861 861 862 864 865 866 867 868 869 869 870 870 869 869 869 871 872 873 874 874 875 876 878 878 879 880 880 881 881 881 882 882 882 882 881 881 881 880 880 879 879 879 879
796 790 783 784 788 794 794 793 796 798 801 805 806 805 805 807 811 809 810 816 812 807 807 809 812 817 821 823 826 828 831 834 835 838 841 843 845 846 848 849 851 853 854 856 857 858 858 859 860 860 860 860 861 862 862 862 863 864 866 867 868 869 870 871 872 872 872 871 871 871 872 874 875 875 876 877 878 878 879 880 880 881 881 882 882 882 882 882 882 881 881 881 880 879 879 879 879
796 792 785 788 791 792 793 795 798 799 803 805 802 803 805 810 814 811 813 814 808 807 807 809 813 816 821 824 826 829 831 834 836 839 841 843 845 846 848 850 851 853 855 856 857 858 859 859 860 860 861 861 862 863 863 864 864 865 866 867 869 870 871 872 873 873 873 873 873 873 873 874 875 876 877 878 879 879 879 880 881 881 882 882 882 883 883 882 882 881 881 881 881 880 880 879 879
793 792 787 792 797 796 793 795 800 802 805 804 803 807 808 808 810 813 817 814 810 810 810 811 814 817 822 825 827 830 832 834 837 839 842 844 846 847 849 851 852 853 855 856 857 858 859 860 861 861 862 862 863 864 865 865 866 866 867 868 869 870 871 872 873 874 874 874 875 875 875 875 876 877 878 879 880 880 881 881 882 882 882 883 883 883 883 883 882 882 882 881 881 881 880 880 879
790 790 790 796 802 800 798 800 803 806 806 805 808 811 810 806 809 818 818 814 812 811 812 814 816 820 823 825 827 830 833 834 837 839 842 844 846 848 849 851 852 853 855 856 858 859 860 861 862 862 863 863 864 865 866 866 867 868 868 869 870 870 871 872 873 874 875 875 876 876 876 876 877 878 879 880 881 881 882 882 883 883 883 883 883 883 883 883 883 882 882 882 882 881 881 881 880
786 789 794 801 804 801 802 807 808 808 808 807 810 814 813 807 811 824 820 813 813 813 816 817 818 822 824 825 827 831 833 834 837 839 842 844 846 848 849 851 852 853 855 857 858 859 860 861 862 863 864 865 865 866 867 867 868 869 869 870 871 872 872 873 874 875 876 876 877 877 878 878 879 879 880 881 881 882 883 883 883 884 884 884 884 884 884 884 883 883 883 882 882 882 882 881 880
786 791 799 806 809 807 807 812 812 811 812 808 808 814 815 811 814 821 819 814 814 815 818 819 820 823 824 826 829 831 833 835 838 839 841 844 845 847 848 850 852 854 855 857 858 860 861 862 863 864 865 865 866 867 867 868 869 869 870 871 872 873 873 874 875 876 877 878 879 879 879 880 880 881 881 882 882 883 883 883 884 884 885 885 885 885 884 884 884 884 883 883 883 882 882 881 880
788 790 803 812 811 815 813 814 814 813 817 811 809 820 821 817 819 818 816 815 816 817 819 820 822 824 825 827 829 832 833 836 838 839 841 843 845 846 848 850 851 853 855 857 859 859 861 862 864 865 865 866 867 868 868 869 869 870 871 871 872 873 874 875 876 877 878 879 880 880 881 881 881 882 882 883 883 884 884 884 885 885 886 886 886 885 885 885 885 884 884 883 883 882 882 881 880
791 791 802 809 812 823 818 813 816 815 819 813 816 834 831 821 820 818 816 816 819 821 820 821 822 824 826 828 830 832 833 836 837 839 842 843 845 846 847 850 851 853 855 857 859 859 861 862 864 865 866 867 868 869 869 870 870 871 871 872 873 874 875 876 877 878 879 880 880 880 881 881 882 883 883 884 884 885 885 885 886 886 886 886 886 886 886 886 885 885 885 884 883 882 882 881 880
793 795 797 796 808 825 819 814 819 820 820 814 823 840 834 824 822 818 816 816 819 822 821 820 822 823 826 828 830 832 833 835 837 838 841 843 845 846 848 850 851 853 855 856 858 860 861 862 864 865 866 867 868 869 870 870 871 872 872 873 874 874 875 876 877 878 879 880 880 881 881 882 883 883 884 884 885 885 885 886 886 887 887 887 887 886 886 886 886 886 885 884 883 883 882 881 880
792 803 803 792 802 818 817 814 815 820 823 817 827 839 833 825 822 818 816 816 818 821 822 821 821 823 825 827 829 831 832 834 836 838 841 843 844 846 848 849 851 853 854 856 858 859 861 862 864 865 866 868 868 869 870 871 872 872 873 874 874 875 876 876 877 878 879 880 881 881 882 882 883 884 884 885 885 885 886 886 887 887 887 887 887 887 887 887 886 886 886 885 884 883 881 880 880
795 802 804 796 806 816 816 817 811 813 821 822 827 836 834 826 820 818 817 817 819 821 823 822 822 823 824 827 828 829 832 834 835 837 840 842 844 846 847 849 851 853 854 856 858 859 861 862 864 865 866 868 868 870 870 871 872 873 874 874 875 876 876 877 877 878 879 880 881 882 882 883 883 884 884 885 885 886 886 886 887 887 887 887 887 887 887 888 887 886 886 886 885 883 881 880 880
802 795 797 797 805 810 814 821 814 809 819 825 825 828 831 826 819 818 818 818 820 821 823 822 822 823 824 826 827 828 831 833 834 835 839 841 843 845 847 849 851 853 854 856 857 859 860 862 864 865 866 868 869 870 871 872 873 873 874 875 875 876 876 877 878 879 879 880 881 882 882 883 884 884 884 885 885 886 886 887 887 887 888 888 888 888 888 888 888 887 887 886 885 884 882 881 880
806 794 797 802 800 805 815 818 812 811 820 826 828 831 832 827 822 820 818 819 820 821 822 822 822 823 825 825 826 828 830 832 833 834 837 840 843 845 847 849 851 852 854 856 858 859 860 862 863 865 866 867 869 870 871 872 873 873 874 875 876 876 877 877 878 879 879 880 881 882 883 883 884 884 885 885 885 886 886 887 887 887 888 888 888 888 888 888 888 887 887 886 885 884 883 882 881
797 790 794 802 800 802 807 806 805 810 821 827 830 835 833 830 828 823 820 819 820 821 821 822 822 823 825 825 826 828 830 831 831 834 837 839 842 844 846 849 850 852 854 856 858 859 860 862 863 865 866 867 869 870 871 872 872 873 874 875 875 876 877 877 878 879 879 880 881 882 883 883 884 884 885 885 886 886 886 887 887 888 888 888 888 888 888 888 888 888 887 886 885 884 883 882 881
789 790 794 803 808 806 802 802 802 806 821 827 825 830 832 830 830 826 822 821 821 822 823 824 823 823 825 825 825 828 829 828 830 833 836 838 841 843 846 848 850 852 854 855 857 859 860 861 863 864 866 867 868 869 870 871 872 873 873 874 875 875 877 877 878 879 879 880 881 882 883 883 884 884 885 885 885 886 886 887 887 887 888 888 888 888 888 888 888 888 887 886 885 884 883 882 882
789 792 794 806 816 813 807 805 802 805 819 825 822 827 829 825 826 825 822 824 823 821 823 824 823 823 823 824 825 827 827 826 828 832 834 837 840 842 845 847 849 851 853 855 856 858 860 861 862 864 865 867 868 869 870 871 872 872 873 873 874 875 876 877 877 878 879 880 881 881 882 883 883 884 885 885 885 886 886 886 887 887 888 888 888 888 888 888 888 888 887 886 885 885 884 883 882
791 794 795 805 811 811 810 806 803 806 815 819 820 824 824 820 821 823 822 823 822 818 819 820 820 822 823 824 825 826 827 827 828 830 833 836 838 840 844 846 848 850 852 854 855 857 859 860 862 863 865 866 867 868 869 870 872 872 873 873 873 874 875 876 877 878 879 880 881 881 882 883 883 884 884 885 885 886 886 886 887 887 888 888 888 888 888 888 888 888 887 887 885 884 884 883 883
790 798 807 809 807 812 815 812 810 810 812 816 817 816 819 821 820 820 820 820 820 819 820 818 817 820 821 821 823 824 827 828 828 829 830 834 837 839 842 844 846 848 850 852 854 856 857 859 861 862 864 866 867 868 869 870 871 872 873 873 874 875 875 876 877 878 879 880 880 881 882 882 883 884 885 885 885 886 886 886 887 887 887 888 888 888 888 888 888 887 887 887 886 884 883 883 884
790 797 813 814 807 809 814 813 812 812 814 814 814 817 819 822 824 823 819 819 822 823 825 822 818 818 819 819 821 822 824 826 828 828 828 831 835 837 840 843 845 847 849 850 852 854 856 858 860 862 863 865 866 868 869 870 871 872 873 874 874 875 875 876 877 878 878 879 880 881 882 882 883 884 884 885 885 886 886 886 886 887 887 887 887 888 888 888 888 887 887 887 886 885 884 883 884
796 794 799 801 800 805 811 810 810 818 823 811 811 829 827 815 817 821 819 822 824 826 828 827 821 818 819 820 821 821 822 823 824 825 827 829 832 836 839 841 843 845 847 849 850 852 854 857 859 861 863 864 866 867 869 870 871 872 873 873 874 874 875 876 876 877 878 879 879 880 881 882 883 884 884 885 885 886 886 886 886 887 887 887 887 887 888 888 887 887 887 887 886 886 885 884 884
804 797 789 791 796 805 812 811 809 815 816 801 802 827 833 818 812 813 816 821 823 824 828 827 823 821 819 819 820 820 821 822 823 823 825 827 830 834 837 840 841 843 845 847 849 851 853 856 858 860 862 864 865 867 868 870 871 872 872 873 873 874 875 875 876 877 877 878 879 880 881 882 883 884 884 885 885 885 886 886 886 887 887 887 887 887 887 887 887 887 887 887 887 886 886 885 884
804 796 791 792 796 805 810 809 807 801 800 800 797 810 824 820 809 805 810 819 821 822 825 824 823 821 818 817 817 819 820 820 822 823 823 825 829 832 835 838 840 841 844 846 848 850 852 855 857 859 861 863 864 866 868 869 871 872 872 873 873 874 875 875 876 877 878 879 879 880 881 882 882 883 884 885 885 885 886 886 886 886 887 887 887 887 887 887 887 887 887 887 887 887 887 886 886
800 794 792 791 792 799 800 802 803 795 801 813 804 802 817 816 805 803 809 817 819 819 820 820 819 819 818 816 815 816 817 817 819 821 823 824 827 830 833 836 838 840 842 845 847 849 852 854 856 858 860 862 863 865 867 868 870 871 872 872 873 874 875 875 876 877 878 879 879 880 881 882 882 883 884 884 885 885 886 886 886 886 887 886 887 887 887 887 887 887 887 887 888 887 887 887 887
794 790 792 791 790 792 794 799 801 801 812 816 805 803 815 818 812 812 816 817 815 812 812 814 815 816 816 814 813 814 815 816 817 818 821 824 826 829 831 834 837 838 841 844 846 848 851 853 855 857 859 861 862 864 866 867 869 870 871 872 873 874 875 875 876 877 878 879 879 880 881 882 882 883 884 884 885 885 885 886 886 886 887 886 887 887 886 887 887 887 887 888 888 888 888 888 887
789 790 797 799 797 795 798 799 800 815 823 809 798 798 808 818 813 806 810 808 802 802 805 809 813 814 814 813 812 811 813 815 816 817 819 823 825 827 830 832 835 838 840 843 845 847 849 851 853 856 858 860 861 863 865 866 868 869 870 872 873 874 874 875 876 877 878 879 879 880 880 881 882 882 883 884 884 885 885 886 886 886 887 887 887 887 886 887 887 887 887 887 888 888 888 888 888
789 795 802 811 815 810 810 809 813 829 828 805 794 793 804 819 808 792 795 793 788 793 798 803 809 813 813 812 810 809 811 813 814 817 818 821 824 826 828 831 833 837 839 841 844 846 848 850 852 855 857 859 861 862 864 865 867 868 869 871 872 873 874 875 876 877 878 878 879 879 880 881 881 882 883 883 884 884 885 886 886 886 887 887 887 886 886 886 887 887 887 887 887 887 887 887 887
791 796 805 827 841 837 832 828 826 826 816 799 792 795 806 811 795 784 788 788 784 784 786 792 800 807 811 810 808 806 808 810 812 815 817 819 822 825 827 830 832 836 838 840 843 845 847 850 852 854 856 858 860 861 863 865 866 867 868 870 872 873 874 875 876 876 877 878 878 879 879 880 881 882 882 882 883 884 885 885 886 886 886 886 886 886 886 886 887 887 887 887 887 887 887 887 887
793 795 807 831 851 858 852 837 827 824 811 794 789 800 810 804 789 781 782 782 780 778 778 784 791 799 806 807 806 805 806 808 810 813 815 817 821 824 826 829 831 834 837 839 842 844 847 849 851 853 855 857 859 860 862 864 865 866 868 869 871 872 873 874 875 876 876 877 878 878 879 879 880 881 881 882 882 883 884 884 885 886 886 886 886 886 886 886 886 887 887 887 887 886 887 887 887
790 785 794 816 832 848 849 832 827 828 814 798 799 806 806 802 793 779 775 776 775 776 776 779 787 794 800 804 805 804 805 806 808 811 814 816 819 823 825 828 830 833 835 838 841 843 846 848 850 852 854 856 858 859 861 863 864 866 867 868 870 871 873 874 874 875 876 877 877 878 878 879 879 880 881 882 882 883 883 884 884 885 885 885 885 886 886 886 886 886 887 887 886 886 886 886 886
789 778 789 804 803 814 827 820 814 815 812 807 806 801 789 788 787 773 773 777 775 777 777 779 789 794 799 806 806 804 804 804 807 810 812 815 818 821 823 826 829 831 834 837 839 842 845 847 849 851 853 855 857 858 860 862 863 865 866 868 869 870 872 873 874 875 876 876 877 877 878 879 879 880 880 881 882 882 882 883 883 884 884 885 885 885 886 886 886 886 887 886 886 886 886 886 886
787 786 793 789 777 787 811 817 807 809 820 812 801 797 784 783 787 776 775 780 777 780 779 780 789 793 799 806 806 805 804 803 806 808 810 812 816 819 822 824 827 829 833 836 838 841 843 845 847 849 852 854 855 857 859 861 862 864 866 867 868 869 871 872 873 874 875 876 876 877 877 878 879 880 880 880 881 881 882 882 882 883 883 884 884 885 885 885 886 886 886 886 886 886 886 886 886
784 793 787 778 780 785 798 815 818 822 831 813 797 800 793 791 798 788 781 783 782 781 780 781 787 792 799 803 804 805 804 803 805 806 809 811 814 817 820 823 826 828 831 834 837 839 841 844 845 847 850 852 854 856 857 859 861 863 864 866 867 868 870 871 871 873 874 875 876 876 877 877 878 879 879 880 880 881 881 881 882 882 882 883 883 884 884 885 885 885 885 886 886 886 886 886 886
776 781 771 776 800 804 799 814 823 824 830 815 800 800 792 787 792 790 786 785 783 782 781 783 788 792 796 800 803 805 804 804 805 806 809 810 812 816 819 822 825 827 831 833 835 838 840 842 844 846 848 850 852 854 856 858 859 861 863 864 866 867 868 869 870 871 873 873 874 875 876 876 877 878 879 879 880 880 880 881 881 881 881 882 883 883 884 884 884 885 885 885 885 885 885 885 885
774 775 770 773 788 793 793 800 803 810 822 818 808 802 791 781 779 783 786 782 780 783 782 783 787 790 794 797 801 804 805 806 806 807 808 808 811 815 817 821 824 826 829 831 834 837 839 841 843 845 847 849 851 852 854 856 857 859 861 862 864 865 867 868 869 870 871 872 873 874 875 875 876 877 878 878 879 879 880 880 880 880 880 881 881 882 883 883 884 884 884 884 884 884 885 885 885
783 786 784 781 781 779 783 787 783 793 811 814 811 806 792 783 780 781 783 781 779 780 782 783 784 787 791 794 799 803 805 806 806 806 807 807 811 814 817 821 823 826 829 830 833 835 837 840 841 843 845 847 849 851 852 854 856 858 859 860 862 864 865 867 868 869 870 871 872 873 874 874 875 876 876 877 878 878 879 879 879 879 880 880 880 881 882 882 882 883 883 883 883 884 884 884 884
776 783 781 780 782 782 794 800 784 782 796 801 804 805 795 789 787 781 780 780 778 777 780 783 783 785 789 793 797 801 804 807 807 807 807 808 811 814 817 820 822 825 828 830 832 834 836 839 840 842 844 845 847 849 851 853 854 856 858 859 861 862 864 865 866 867 868 870 871 871 872 873 874 875 875 876 876 877 878 878 878 879 879 879 880 880 880 881 881 882 882 882 882 883 883 883 883